Location: *
(45.9500°N, 9.0833°E)
Time: 15:26:42
(UTC+00:00)

Resurs 01 Rocket - Pass Details

Date: 03 March 2021
Orbit: 635 x 643 km, 98.0° (Epoch: 14 April)

Event Time Altitude Azimuth Distance (km) Brightness Sun altitude
Exits shadow 19:12:42 24° 33° (NNE) 1,309 3.0 -21.5°
Drops below altitude 10° 19:15:05 10° 6° (N) 2,034 4.3 -21.9°
Sets 19:17:29 0° 356° (N) 2,948 5.3 -22.3°
